Wind_Speed
23 23 25 25 26 26 26 27 27 27 28 28 29 29 29 29 29 29 29 30 30 30 30 30 30 30 29 29 29 29 29 28 29 29 30 30 30 30 31 31 31 31 32
23 24 25 25 26 26 26 27 27 28 29 29 29 30 29 29 29 29 29 30 30 30 30 30 30 30 29 29 28 28 29 28 29 30 30 30 29 30 30 31 31 32 32
24 25 26 25 25 25 25 26 27 28 27 28 28 29 29 29 30 29 29 29 29 30 30 30 30 30 29 29 29 29 29 29 30 30 30 30 29 30 30 30 30 30 31
24 25 26 25 25 24 24 26 27 27 26 27 27 28 28 29 29 29 28 28 29 30 30 30 30 30 30 29 29 29 30 30 30 30 31 31 31 31 30 30 30 30 30
26 25 25 25 24 23 24 25 25 26 26 27 27 27 28 28 28 28 28 29 30 30 30 30 29 29 30 29 29 29 29 29 29 29 30 30 31 31 30 29 29 30 30
26 24 24 25 24 24 24 24 24 25 25 25 26 26 28 27 26 27 28 28 29 29 29 29 28 28 29 29 28 28 28 29 29 29 29 30 31 30 31 30 30 29 29
25 24 25 24 25 25 24 24 24 24 24 24 25 26 26 25 25 27 27 28 28 29 28 28 28 28 28 29 28 28 28 29 29 29 29 30 30 30 31 31 30 30 30
24 25 26 25 25 25 24 23 23 24 24 24 24 24 25 26 26 27 27 27 28 28 28 28 27 27 27 27 27 27 28 29 29 29 30 30 30 30 30 30 30 29 29
25 25 25 25 25 25 24 24 24 24 24 24 24 24 25 26 27 27 27 28 28 28 28 27 26 26 26 26 25 25 26 26 27 28 28 29 29 29 29 29 29 28 27
26 25 25 25 25 24 23 23 23 23 22 23 24 24 24 25 26 26 27 27 27 27 27 26 25 25 25 24 25 25 25 25 26 26 27 27 27 27 28 28 27 27 27
25 25 24 24 24 23 22 22 22 22 23 23 23 24 25 25 25 25 26 26 26 26 26 24 24 24 23 24 24 25 26 26 26 26 26 26 27 26 27 27 26 26 25
25 24 23 23 23 22 22 21 21 22 22 23 23 24 24 24 24 24 24 24 25 25 24 24 24 24 23 24 25 26 26 25 26 26 26 26 26 25 25 25 24 24 24
24 23 23 22 22 21 21 20 20 21 21 22 22 23 23 23 23 23 23 24 24 24 24 24 24 24 23 24 24 25 25 24 25 25 26 25 24 24 23 23 23 23 24
24 24 23 21 21 21 20 20 19 20 21 21 22 21 22 22 21 21 22 22 23 23 23 23 24 23 23 23 23 24 24 24 25 25 24 23 23 23 22 23 23 23 23
24 23 22 20 20 19 19 19 20 20 20 20 20 20 20 20 20 20 20 21 22 22 22 23 23 23 23 23 23 23 23 24 23 23 22 21 20 20 21 22 22 23 23
22 21 20 19 18 19 19 19 19 19 19 19 19 19 19 19 19 19 20 21 21 22 22 22 22 23 23 22 22 22 22 22 22 21 20 20 20 20 21 22 21 22 22
20 19 19 18 18 18 17 17 16 16 17 17 18 18 18 17 18 18 19 20 21 22 21 22 22 22 22 22 22 21 21 22 21 20 20 20 20 20 20 20 20 21 21
19 18 17 16 16 16 15 15 15 15 15 16 15 16 17 17 17 18 19 19 21 22 22 21 21 21 21 22 22 22 22 22 21 21 20 20 20 20 20 19 19 19 20
16 15 14 14 14 13 13 13 13 13 14 14 15 15 16 16 17 18 19 20 21 21 21 21 20 21 22 23 22 22 22 22 21 20 20 20 20 20 19 19 19 20 20
14 14 13 13 12 10 11 12 12 12 13 14 15 16 16 16 18 18 19 19 19 20 20 20 20 21 22 22 22 22 22 21 20 20 20 20 19 19 19 20 20 20 21
13 12 11 10 10 9 10 11 12 12 12 14 15 15 15 16 18 18 18 18 19 19 20 21 21 22 22 22 22 22 21 20 20 20 20 20 19 19 20 20 20 20 21
13 12 10 8 9 9 10 10 11 11 13 14 15 15 16 17 17 18 18 18 18 20 21 22 22 22 22 22 22 22 22 21 21 20 20 20 20 20 20 20 21 21 21
12 11 9 8 8 9 9 9 10 12 12 13 14 16 16 17 17 18 18 18 19 19 21 21 22 22 22 22 22 22 22 21 21 21 21 21 21 21 21 21 21 21 21
10 9 8 8 8 9 9 9 10 12 13 13 14 15 16 16 17 18 18 18 18 19 20 21 22 23 23 23 23 22 23 22 22 22 22 22 22 22 22 22 22 21 21
9 8 8 7 8 8 9 9 11 12 13 13 14 15 16 16 17 17 18 18 19 19 20 21 23 23 23 24 24 24 24 23 23 23 23 23 23 23 23 23 23 22 22
8 8 8 8 8 8 9 10 11 12 13 13 14 15 16 17 17 17 18 19 19 19 20 22 23 24 24 24 24 25 25 25 25 25 25 24 24 23 23 23 23 24 23
Wind_Direction
291 289 290 289 289 288 286 288 289 289 290 292 294 295 297 297 296 296 295 295 296 297 297 297 297 295 294 291 288 288 287 286 285 285 285 284 282 283 280 278 275 273 273
291 294 297 294 291 290 288 287 288 289 290 292 294 295 297 297 297 296 297 296 297 298 297 296 296 295 293 292 289 287 286 286 285 285 285 285 285 284 282 280 278 274 273
295 295 296 297 295 292 291 291 291 292 291 293 295 297 297 297 299 299 298 297 297 298 297 296 296 295 294 291 288 286 287 287 287 287 287 287 286 284 282 280 278 275 274
295 296 296 297 296 294 295 294 294 293 291 292 296 299 299 299 299 299 299 299 300 299 300 298 295 295 294 292 290 288 288 288 289 289 288 287 288 286 282 280 277 275 274
299 300 300 299 299 298 298 296 297 294 293 294 296 298 298 299 299 299 300 300 302 303 302 301 298 297 297 295 292 290 288 288 290 290 290 289 288 287 284 280 278 276 276
299 301 300 299 300 297 299 300 297 296 296 296 298 298 300 300 300 301 302 302 303 304 303 302 300 299 298 297 293 290 290 290 290 290 290 291 290 287 284 283 280 278 276
302 302 302 300 300 300 297 300 302 299 299 300 301 302 302 302 303 303 303 304 305 305 303 302 301 300 297 296 293 291 290 290 291 291 290 290 289 287 285 284 281 279 278
302 302 302 302 301 302 301 301 302 302 302 302 303 304 304 304 304 304 305 307 306 305 305 302 301 300 299 297 293 293 292 292 292 292 291 291 289 287 287 285 282 279 277
299 300 300 301 301 301 302 302 301 301 300 302 303 305 306 306 306 305 307 308 309 309 307 305 304 303 301 298 295 295 296 294 294 294 292 292 289 287 287 286 283 279 277
300 300 301 301 299 299 300 300 300 301 304 304 303 304 307 307 307 307 308 309 310 311 310 307 305 303 302 301 300 299 299 298 296 296 295 292 290 288 286 285 284 281 279
297 298 300 300 300 299 300 301 301 301 301 302 305 304 306 307 307 308 309 310 312 313 312 309 307 307 305 304 305 303 302 301 299 298 296 294 292 290 287 285 283 282 281
298 300 301 300 300 301 303 303 301 300 302 303 306 309 308 309 309 311 312 314 313 314 315 312 310 309 307 306 307 305 303 301 300 299 299 296 295 293 290 286 284 282 281
298 298 300 301 300 301 301 304 302 301 302 305 308 311 311 311 311 314 315 317 316 316 316 314 314 313 311 308 308 307 306 305 302 300 300 299 296 293 291 287 284 282 281
301 298 298 299 299 301 301 302 303 306 305 306 309 312 315 316 316 315 316 319 319 320 319 318 318 317 316 313 311 310 309 307 305 303 303 303 299 295 292 290 288 285 285
303 303 299 298 300 301 303 303 305 308 308 310 311 314 317 320 321 319 320 321 323 324 323 321 321 320 318 315 312 311 311 312 310 307 306 304 302 299 295 294 292 288 288
305 305 302 301 299 301 302 304 306 310 311 312 314 317 318 320 323 323 323 324 324 325 325 324 323 321 320 318 316 314 314 316 315 314 310 305 301 301 300 298 294 291 289
307 305 304 305 303 303 305 307 311 313 315 314 315 318 321 325 326 326 326 325 326 328 326 327 327 324 322 322 321 321 319 319 318 317 315 311 307 306 305 301 299 296 293
310 310 308 310 311 309 309 313 317 319 319 319 320 323 324 327 329 329 329 329 329 330 330 331 332 330 329 329 327 324 323 323 321 318 315 314 311 308 306 304 302 300 298
312 314 313 313 314 314 315 319 322 324 321 323 325 329 332 334 332 331 330 330 331 331 332 335 337 336 334 333 332 330 329 327 325 321 319 317 316 314 311 307 305 302 300
317 316 316 317 317 316 318 322 326 327 328 327 330 333 334 335 336 335 334 335 335 337 338 338 338 337 335 335 334 334 333 331 329 326 324 322 321 318 314 310 309 306 301
321 318 318 319 319 318 324 326 328 332 334 336 337 336 338 338 338 338 339 339 338 340 341 341 340 339 339 339 339 337 336 335 332 330 328 326 325 322 317 312 311 310 306
325 323 323 321 317 319 325 326 328 335 339 341 341 340 339 339 339 339 339 339 341 342 343 343 343 343 342 341 340 340 339 337 335 334 331 329 327 326 323 319 314 312 310
326 327 326 323 321 323 327 330 334 338 344 344 342 341 341 341 342 341 341 342 344 344 345 345 346 345 344 343 343 341 339 338 334 332 331 330 329 326 325 321 317 315 314
328 329 330 329 327 325 331 335 340 345 346 345 342 341 342 343 343 343 344 344 344 345 347 347 345 344 344 344 344 342 340 338 335 331 330 329 329 327 324 322 318 317 316
328 332 332 331 328 330 332 339 345 346 344 345 345 345 345 345 344 343 345 345 345 345 346 346 345 344 344 343 343 341 339 338 336 335 332 330 328 325 324 323 321 319 317
328 329 326 326 329 331 337 344 347 347 347 348 348 349 348 346 346 345 346 347 346 345 344 343 343 343 343 343 341 338 338 337 336 334 333 331 329 327 326 325 323 320 317
Height
5840 5838 5837 5835 5833 5832 5831 5829 5828 5826 5824 5823 5821 5819 5816 5814 5812 5810 5808 5806 5804 5801 5799 5797 5795 5793 5791 5789 5787 5786 5785 5784 5783 5783 5782 5781 5780 5779 5779 5778 5778 5778 5778
5835 5833 5831 5830 5828 5827 5825 5823 5822 5821 5819 5817 5815 5813 5811 5808 5806 5804 5802 5800 5798 5795 5793 5790 5788 5786 5784 5782 5780 5779 5778 5777 5776 5775 5774 5773 5773 5771 5770 5770 5769 5769 5769
5830 5829 5826 5824 5823 5821 5820 5818 5816 5815 5812 5811 5808 5807 5804 5802 5800 5798 5796 5794 5791 5789 5786 5784 5781 5779 5777 5775 5773 5772 5771 5770 5768 5767 5766 5764 5764 5763 5762 5761 5760 5760 5760
5826 5823 5822 5820 5818 5816 5814 5813 5810 5808 5806 5805 5803 5800 5798 5796 5794 5792 5790 5787 5784 5782 5779 5776 5774 5771 5769 5767 5766 5765 5763 5762 5760 5759 5757 5756 5755 5754 5754 5753 5752 5751 5751
5821 5819 5817 5815 5813 5811 5809 5807 5804 5802 5800 5798 5797 5794 5792 5790 5788 5786 5784 5781 5778 5775 5772 5769 5767 5764 5762 5760 5759 5757 5756 5754 5753 5751 5750 5748 5747 5745 5745 5744 5743 5743 5742
5816 5814 5813 5810 5808 5806 5804 5801 5799 5797 5795 5793 5791 5788 5786 5784 5782 5779 5777 5774 5771 5768 5765 5763 5760 5758 5756 5753 5751 5750 5748 5747 5745 5744 5742 5740 5739 5737 5736 5736 5735 5734 5734
5812 5810 5808 5806 5803 5801 5798 5797 5795 5792 5790 5788 5785 5783 5781 5778 5776 5773 5771 5768 5765 5762 5759 5756 5754 5751 5749 5746 5744 5743 5741 5739 5738 5736 5734 5733 5731 5729 5728 5727 5726 5726 5725
5808 5806 5804 5801 5799 5797 5793 5791 5790 5787 5785 5783 5780 5778 5775 5773 5770 5768 5765 5762 5759 5756 5752 5750 5747 5744 5742 5740 5738 5736 5734 5732 5730 5728 5726 5725 5723 5721 5719 5718 5718 5717 5717
5803 5801 5799 5796 5794 5791 5789 5787 5785 5783 5781 5778 5775 5773 5770 5768 5765 5762 5759 5756 5753 5750 5747 5744 5741 5738 5736 5733 5731 5729 5727 5725 5723 5721 5718 5717 5715 5713 5711 5710 5709 5709 5709
5799 5796 5794 5791 5789 5787 5785 5783 5780 5778 5776 5774 5771 5768 5765 5762 5760 5757 5754 5751 5747 5744 5741 5738 5735 5733 5730 5727 5725 5723 5720 5718 5716 5713 5711 5709 5707 5705 5703 5702 5701 5700 5700
5793 5791 5789 5787 5783 5781 5779 5778 5776 5774 5771 5769 5766 5763 5760 5757 5755 5752 5749 5745 5742 5739 5736 5733 5730 5727 5724 5722 5719 5716 5714 5711 5709 5706 5704 5701 5699 5697 5695 5694 5694 5693 5692
5788 5786 5783 5781 5779 5776 5774 5772 5770 5768 5766 5763 5761 5758 5755 5752 5750 5747 5744 5741 5738 5735 5731 5728 5725 5722 5719 5716 5713 5710 5707 5705 5702 5699 5697 5694 5692 5690 5688 5687 5686 5685 5684
5782 5780 5778 5776 5774 5772 5770 5768 5766 5764 5762 5759 5756 5753 5750 5748 5745 5742 5739 5736 5733 5730 5726 5723 5720 5716 5713 5710 5707 5704 5701 5698 5696 5693 5690 5687 5685 5683 5681 5680 5678 5678 5677
5776 5774 5773 5771 5770 5768 5765 5764 5762 5760 5757 5755 5752 5749 5746 5743 5741 5738 5735 5732 5729 5725 5722 5718 5715 5711 5708 5705 5702 5699 5695 5692 5689 5686 5683 5681 5679 5677 5675 5673 5671 5670 5670
5771 5769 5768 5766 5764 5763 5760 5759 5758 5755 5753 5750 5748 5745 5742 5740 5737 5734 5731 5728 5725 5722 5718 5714 5710 5707 5703 5700 5696 5693 5690 5687 5683 5680 5678 5675 5673 5671 5669 5667 5665 5664 5663
5766 5764 5762 5761 5759 5758 5757 5755 5753 5751 5748 5746 5744 5741 5739 5736 5734 5731 5728 5725 5722 5718 5714 5710 5706 5703 5699 5695 5691 5688 5685 5682 5678 5675 5672 5670 5668 5665 5663 5661 5659 5658 5657
5762 5760 5758 5756 5755 5754 5752 5750 5749 5747 5745 5743 5740 5738 5736 5733 5731 5728 5725 5722 5718 5714 5710 5707 5703 5699 5695 5691 5687 5684 5680 5677 5674 5670 5668 5665 5663 5660 5658 5656 5654 5652 5650
5758 5756 5754 5753 5752 5750 5749 5747 5745 5744 5742 5740 5737 5736 5733 5731 5728 5725 5722 5719 5716 5712 5708 5704 5700 5696 5692 5688 5684 5680 5676 5672 5669 5666 5663 5660 5658 5655 5653 5651 5649 5647 5645
5754 5752 5751 5750 5749 5747 5746 5745 5743 5742 5739 5737 5735 5733 5731 5728 5726 5723 5720 5717 5713 5709 5705 5701 5697 5693 5689 5685 5680 5676 5672 5668 5665 5662 5659 5656 5653 5650 5648 5646 5644 5642 5639
5751 5750 5749 5748 5747 5745 5744 5743 5742 5740 5738 5736 5734 5731 5729 5727 5724 5721 5717 5714 5711 5707 5703 5698 5694 5690 5686 5682 5677 5673 5669 5665 5662 5658 5655 5652 5649 5646 5643 5641 5638 5636 5634
5750 5748 5747 5746 5745 5744 5743 5742 5740 5739 5737 5735 5732 5730 5728 5725 5722 5719 5716 5712 5708 5705 5701 5697 5692 5688 5684 5679 5674 5670 5666 5662 5658 5654 5651 5648 5645 5641 5638 5636 5633 5631 5628
5748 5747 5746 5745 5744 5743 5742 5741 5739 5738 5735 5733 5731 5729 5726 5723 5720 5717 5714 5710 5706 5703 5699 5695 5690 5685 5681 5676 5672 5667 5663 5658 5654 5651 5648 5644 5641 5637 5634 5631 5628 5625 5623
5747 5746 5745 5744 5743 5742 5741 5739 5738 5736 5734 5732 5730 5727 5725 5722 5718 5715 5712 5708 5705 5701 5697 5693 5688 5684 5679 5674 5669 5665 5660 5655 5651 5648 5644 5641 5637 5633 5630 5627 5623 5620 5618
5746 5745 5744 5743 5742 5741 5740 5738 5737 5735 5733 5731 5729 5726 5723 5720 5717 5713 5710 5707 5703 5699 5695 5691 5686 5681 5677 5672 5667 5662 5657 5653 5649 5645 5641 5637 5633 5630 5626 5622 5619 5615 5612
5745 5744 5743 5742 5741 5740 5739 5737 5736 5734 5732 5730 5727 5724 5722 5719 5715 5712 5708 5705 5701 5697 5692 5688 5684 5679 5674 5669 5664 5659 5655 5650 5645 5641 5637 5633 5630 5626 5621 5617 5613 5610 5607
5744 5743 5742 5741 5741 5740 5738 5736 5735 5733 5731 5729 5726 5723 5720 5717 5714 5710 5707 5703 5699 5695 5691 5687 5682 5677 5672 5667 5662 5657 5652 5647 5642 5638 5633 5629 5625 5620 5616 5612 5608 5605 5601